GSAT0209 (PRN E09)

Last updated on Sun Jul 21 2024 00:03:08 GMT+0000 (Coordinated Universal Time)

1 41174U 15079A 24202.17747499 -.00000007 00000+0 00000+0 0 9993 2 41174 55.4384 120.4089 0004029 330.9670 29.0063 1.70473719 53473

Satellite not in orbit

GSAT0209 (PRN E09)